This is the latest recevied weather packets stored in our database for station/object N3TTT-13. If no packets are shown the sender has not sent any weather packets the latest 1 day(s).
| Time | Temp. | Humidity | Pressure | Rain* | Wind** | Luminosity | Snow |
|---|---|---|---|---|---|---|---|
| 1778060682 | 17.78° C | 79% | 1011.1 hPa | 0 mm | 0.89 m/s, 199° | 0 W/m² | - |
| 1778060379 | 17.78° C | 79% | 1011 hPa | 0 mm | 1.34 m/s, 216° | 0 W/m² | - |
| 1778060077 | 17.78° C | 79% | 1010.9 hPa | 0 mm | 0 m/s | 0 W/m² | - |
| 1778059774 | 17.78° C | 79% | 1011 hPa | 0 mm | 2.24 m/s, 149° | 0 W/m² | - |
| 1778059472 | 17.78° C | 79% | 1010.8 hPa | 0 mm | 0.45 m/s, 201° | 0 W/m² | - |
| 1778059169 | 17.78° C | 78% | 1010.9 hPa | 0 mm | 0.45 m/s, 293° | 0 W/m² | - |
| 1778058867 | 17.78° C | 78% | 1010.7 hPa | 0 mm | 0.89 m/s, 186° | 0 W/m² | - |
| 1778058564 | 17.78° C | 78% | 1011 hPa | 0 mm | 0.89 m/s, 299° | 0 W/m² | - |
| 1778058261 | 17.78° C | 78% | 1010.8 hPa | 0 mm | 1.34 m/s, 275° | 0 W/m² | - |
| 1778057958 | 17.78° C | 79% | 1010.9 hPa | 0 mm | 0.89 m/s, 234° | 0 W/m² | - |
| 1778057655 | 17.78° C | 79% | 1010.9 hPa | 0 mm | 2.68 m/s, 200° | 0 W/m² | - |
| 1778057351 | 17.78° C | 79% | 1011 hPa | 0 mm | 1.79 m/s, 199° | 0 W/m² | - |
| 1778057048 | 17.78° C | 79% | 1011 hPa | 0 mm | 2.24 m/s, 280° | 0 W/m² | - |
| 1778056744 | 17.78° C | 80% | 1011.1 hPa | 0 mm | 1.34 m/s, 124° | 0 W/m² | - |
| 1778056441 | 17.78° C | 80% | 1011.1 hPa | 0 mm | 0.45 m/s, 193° | 0 W/m² | - |
| 1778056139 | 18.33° C | 80% | 1010.9 hPa | 0 mm | 0.45 m/s, 240° | 0 W/m² | - |
| 1778055835 | 18.33° C | 80% | 1011.2 hPa | 0 mm | 0.89 m/s, 209° | 0 W/m² | - |
| 1778055531 | 17.78° C | 80% | 1011.4 hPa | 0 mm | 0.89 m/s, 239° | 0 W/m² | - |
| 1778055230 | 18.33° C | 80% | 1011.4 hPa | 0 mm | 0 m/s | 0 W/m² | - |
| 1778054927 | 18.33° C | 80% | 1011.2 hPa | 0 mm | 0.89 m/s, 267° | 0 W/m² | - |
| 1778054623 | 18.33° C | 80% | 1011.3 hPa | 0 mm | 1.34 m/s, 352° | 0 W/m² | - |
| 1778054321 | 18.33° C | 79% | 1011.5 hPa | 0 mm | 1.34 m/s, 349° | 0 W/m² | - |
| 1778054018 | 18.33° C | 80% | 1011.2 hPa | 0 mm | 0.45 m/s, 214° | 0 W/m² | - |
| 1778053716 | 18.33° C | 80% | 1011.5 hPa | 0 mm | 1.34 m/s, 211° | 0 W/m² | - |
| 1778053412 | 18.33° C | 79% | 1011.2 hPa | 0 mm | 1.34 m/s, 295° | 0 W/m² | - |
* Rain latest hour (hover to see other rain measurements)
** Current wind speed in m/s (hover to see current wind gust speed)